This demonstration page uses our WeatherBlox Daily Observations layout. Learn more.

Left ArrowRight Arrow

39.92423, -83.80882

Hourly Observations for February 20, 2019

Temp ( °F °C ) Dew Point ( °F °C ) Humidity (%) Winds ( mph kmh ) Pressure ( in mb ) Visibility ( mi km ) Precip ( " mm )
12:56 am 00:56 Cloudy 30 -1.1 24 -4.4 79 79 ESE 12 19 30.38 1029 10 16.0934 N/A
1:19 am 01:19 Cloudy with Light Snow 28 -2 27 -3 93 93 E 12 19 30.39 1029 1.75 2.816345 N/A
1:56 am 01:56 Cloudy with Light Snow 28 -2.2 27 -2.8 96 96 E 13 20 30.35 1028 1 1.60934 N/A
2:06 am 02:06 Cloudy with Light Snow 28 -2 27 -3 93 93 E 10 17 30.36 1028 1 1.60934 0.01 0.254
2:09 am 02:09 Cloudy with Light Snow 28 -2 27 -3 93 93 E 13 20 30.36 1028 0.75 1.207005 0.02 0.508
2:49 am 02:49 Cloudy with Light Snow 27 -3 27 -3 100 100 E 15 24 30.31 1026 1.25 2.011675 0.05 1.27
2:56 am 02:56 Cloudy with Light Snow 27 -2.8 27 -2.8 100 100 E 14 22 30.27 1025 2 3.21868 0.06 1.524
3:07 am 03:07 Cloudy with Light Snow 28 -2 27 -3 93 93 E 14 22 30.28 1025 3 4.82802 N/A
3:56 am 03:56 Cloudy with Light Snow 30 -1.1 30 -1.1 100 100 E 16 26 30.21 1023 3 4.82802 0.09 2.286
4:05 am 04:05 Cloudy with Light Snow 30 -1 30 -1 100 100 E 15 24 30.22 1023 2.5 4.02335 0.01 0.254
4:18 am 04:18 Cloudy with Light Snow 30 -1 30 -1 100 100 E 15 24 30.21 1023 3 4.82802 0.04 1.016
4:30 am 04:30 Cloudy with Nearby Thunderstorms 32 undefined 32 undefined 100 100 E 14 22 30.19 1022 2.5 4.02335 0.04 1.016
4:42 am 04:42 Cloudy with Nearby Thunderstorms 32 undefined 32 undefined 100 100 E 16 26 30.18 1022 1.25 2.011675 0.04 1.016
4:44 am 04:44 Cloudy with Light Snow 32 undefined 32 undefined 100 100 E 15 24 30.18 1022 1 1.60934 0.04 1.016
4:56 am 04:56 Cloudy with Light Snow 31 -0.6 31 -0.6 100 100 E 16 26 30.16 1021 1 1.60934 0.04 1.016
5:16 am 05:16 Cloudy with Light Snow 30 -1 30 -1 100 100 E 13 20 30.18 1022 2 3.21868 0.01 0.254
5:41 am 05:41 Cloudy with Light Snow 32 undefined 32 undefined 100 100 E 15 24 30.15 1021 4 6.43736 0.01 0.254
5:56 am 05:56 Cloudy with Light Wintry Mix 32 undefined 32 undefined 100 100 E 17 28 30.11 1020 6 9.65604 0.01 0.254
5:59 am 05:59 Cloudy with Light Freezing Rain 32 undefined 32 undefined 100 100 E 17 28 30.12 1020 6 9.65604 N/A
6:46 am 06:46 Cloudy with Light Wintry Mix 34 1 32 undefined 93 93 E 16 26 30.13 1020 4 6.43736 0.03 0.762
6:56 am 06:56 Cloudy with Light Wintry Mix 33 0.6 33 0.6 100 100 E 16 26 30.11 1020 4 6.43736 0.06 1.524
7:17 am 07:17 Cloudy with Light Wintry Mix 34 1 34 1 100 100 E 16 26 30.1 1019 5 8.0467 0.06 1.524
7:49 am 07:49 Cloudy 34 1 34 1 100 100 E 20 31 30.06 1018 10 16.0934 0.09 2.286
7:56 am 07:56 Cloudy 33 0.6 33 0.6 100 100 E 21 33 30.05 1018 10 16.0934 0.12 3.048
8:56 am 08:56 Cloudy with Light Rain 33 0.6 33 0.6 100 100 E 18 30 30.06 1018 5 8.0467 0.14 3.556
9:56 am 09:56 Cloudy with Light Rain 33 0.6 33 0.6 100 100 ESE 16 26 30.05 1018 5 8.0467 0.16 4.064
10:56 am 10:56 Cloudy 35 1.7 34 1.1 96 96 SE 17 28 30.01 1016 10 16.0934 0.2 5.08
11:56 am 11:56 Cloudy with Light Rain 35 1.7 35 1.7 100 100 SE 17 28 29.98 1015 10 16.0934 0.24 6.096
12:56 pm 12:56 Cloudy 36 2.2 36 2.2 100 100 SE 14 22 29.95 1014 8 12.87472 0.01 0.254
1:46 pm 13:46 Cloudy with Mist and Fog 36 2 36 2 100 100 SE 15 24 29.88 1012 5 8.0467 N/A
1:56 pm 13:56 Cloudy with Mist and Fog 36 2.2 36 2.2 100 100 ESE 13 20 29.87 1011 6 9.65604 N/A
2:25 pm 14:25 Cloudy with Light Rain 36 2 36 2 100 100 SE 15 24 29.85 1011 2.5 4.02335 N/A
2:47 pm 14:47 Cloudy with Mist and Fog 36 2 36 2 100 100 SE 12 19 29.84 1011 1 1.60934 N/A
2:56 pm 14:56 Cloudy with Light Rain 37 2.8 37 2.8 100 100 SE 8 13 29.85 1011 0.75 1.207005 N/A
3:01 pm 15:01 Cloudy with Light Rain 37 3 37 3 100 100 SSE 12 19 29.86 1011 1.25 2.011675 N/A
3:15 pm 15:15 Cloudy with Rain 37 3 37 3 100 100 SE 10 17 29.85 1011 3 4.82802 0.03 0.762
3:56 pm 15:56 Cloudy with Light Rain 38 3.3 38 3.3 100 100 SE 9 15 29.83 1010 9 14.48406 0.07 1.778
4:15 pm 16:15 Cloudy with Rain 37 3 37 3 100 100 SE 10 17 29.82 1010 2.5 4.02335 0.06 1.524
4:51 pm 16:51 Cloudy with Light Rain 39 4 39 4 100 100 SSE 10 17 29.81 1009 6 9.65604 0.14 3.556
4:56 pm 16:56 Cloudy with Light Rain 39 3.9 39 3.9 100 100 SSE 10 17 29.8 1009 8 12.87472 0.14 3.556
5:16 pm 17:16 Cloudy with Light Rain 39 4 39 4 100 100 S 8 13 29.82 1010 1.75 2.816345 N/A
5:44 pm 17:44 Cloudy with Light Rain 39 4 39 4 100 100 SSE 7 11 29.82 1010 0.75 1.207005 0.02 0.508
5:56 pm 17:56 Cloudy with Light Rain 40 4.4 40 4.4 100 100 S 7 11 29.81 1010 0.75 1.207005 0.03 0.762
6:05 pm 18:05 Cloudy with Light Rain 39 4 39 4 100 100 S 6 9 29.82 1010 0.5 0.80467 N/A
6:13 pm 18:13 Cloudy with Light Rain 39 4 39 4 100 100 S 6 9 29.82 1010 0.25 0.402335 N/A
6:46 pm 18:46 Cloudy with Light Rain 41 5 41 5 100 100 S 7 11 29.82 1010 0.5 0.80467 0.02 0.508
6:56 pm 18:56 Cloudy with Light Rain 42 5.6 42 5.6 100 100 SSW 8 13 29.82 1010 0.5 0.80467 0.02 0.508
7:25 pm 19:25 Cloudy with Light Rain 43 6 43 6 100 100 SSW 13 20 29.83 1010 0.5 0.80467 0.01 0.254
7:47 pm 19:47 Cloudy with Fog 43 6 43 6 100 100 SW 13 20 29.84 1010 0.25 0.402335 0.01 0.254
7:56 pm 19:56 Cloudy with Light Rain 43 6.1 43 6.1 100 100 SW 13 20 29.84 1010 0.25 0.402335 0.01 0.254
8:03 pm 20:03 Cloudy with Light Rain 43 6 43 6 100 100 WSW 14 22 29.85 1011 0.5 0.80467 N/A
8:11 pm 20:11 Cloudy with Light Rain 43 6 43 6 100 100 WSW 15 24 29.85 1011 0.75 1.207005 N/A
8:23 pm 20:23 Cloudy with Light Rain 43 6 43 6 100 100 WSW 17 28 29.85 1011 2 3.21868 N/A
8:32 pm 20:32 Cloudy 43 6 43 6 100 100 WSW 15 24 29.86 1011 8 12.87472 N/A
8:45 pm 20:45 Cloudy 43 6 43 6 100 100 WSW 14 22 29.86 1011 10 16.0934 N/A
8:56 pm 20:56 Cloudy 42 5.6 42 5.6 100 100 WSW 16 26 29.86 1011 10 16.0934 N/A
9:56 pm 21:56 Cloudy 41 5 41 5 100 100 W 14 22 29.9 1013 8 12.87472 N/A
10:49 pm 22:49 Cloudy 39 4 39 4 100 100 W 14 22 29.94 1014 10 16.0934 0.01 0.254
10:56 pm 22:56 Cloudy 40 4.4 39 3.9 97 97 W 15 24 29.93 1014 10 16.0934 0.01 0.254
11:56 pm 23:56 Cloudy 39 3.9 36 2.2 89 89 W 16 26 29.96 1015 10 16.0934 N/A

Powered by AerisWeather